Weather History for Newberry, MI

Change the Weather History Date:

Thursday, August 22, 2013

  Actual Average Record
Temperature  
Mean Temperature 66 °F -  
Max Temperature 76 °F 72 °F 86 °F (1969)
Min Temperature 56 °F 51 °F 33 °F (1998)
Cooling Degree Days 1    
Growing Degree Days 16 (Base 50)    
Moisture  
Dew Point 55 °F    
Average Humidity 73    
Maximum Humidity 99    
Minimum Humidity 35    
Precipitation  
Precipitation 0.00 in - - ()
Sea Level Pressure  
Sea Level Pressure 30.05 in    
Wind  
Wind Speed 6 mph (NW)    
Max Wind Speed 13 mph    
Max Gust Speed 17 mph    
Visibility 10 miles    
Events Rain    
Averages and records for this station are not official NWS values.
T = Trace of Precipitation, MM = Missing Value Source: NWS Daily Summary

Daily Weather History Graph

Daily Weather History Graph

Search for Another Location

Airport:

Trip Planner

Search our weather history database for the weather conditions in past years. The results will help you decide how hot, cold, wet, or windy it might be!

Date:

Astronomy

Aug. 22, 2013 Rise Set
Actual Time 6:49 AM EDT 8:38 PM EDT
Civil Twilight 6:17 AM EDT 9:10 PM EDT
Nautical Twilight 5:38 AM EDT 9:49 PM EDT
Astronomical Twilight 4:55 AM EDT 10:32 PM EDT
Moon 9:10 PM EDT (8/22) 8:47 AM EDT (8/22)
Length of Visible Light 14h 52m
Length of Day
13h 48m
Waning Gibbous, 97% of the Moon is Illuminated
Aug 22
Waning Gibbous
Aug 28
Last Quarter
Sep 5
New
Sep 12
First Quarter
Sep 19
Full

Hourly Weather History & Observations

Time (EDT) Temp. Dew Point Humidity Pressure Visibility Wind Dir Wind Speed Gust Speed Precip Events Conditions
12:14 AM 67.3 °F 65.5 °F 94% 29.95 in 10.0 mi West 8.1 mph - N/A   Mostly Cloudy
12:35 AM 68.0 °F 65.3 °F 91% 29.95 in 10.0 mi West 5.8 mph - N/A   Overcast
12:54 AM 67.3 °F 64.9 °F 92% 29.95 in 10.0 mi West 5.8 mph - N/A   Overcast
1:14 AM 66.4 °F 64.6 °F 94% 29.96 in 10.0 mi SW 6.9 mph - N/A   Mostly Cloudy
1:34 AM 66.2 °F 64.6 °F 94% 29.96 in 10.0 mi SW 9.2 mph - N/A   Mostly Cloudy
1:54 AM 65.8 °F 64.4 °F 95% 29.96 in 10.0 mi WSW 5.8 mph - N/A   Overcast
2:15 AM 65.5 °F 64.4 °F 96% 29.96 in 10.0 mi WSW 8.1 mph - N/A   Overcast
2:34 AM 65.7 °F 64.6 °F 96% 29.95 in 10.0 mi West 4.6 mph - N/A   Mostly Cloudy
2:55 AM 63.9 °F 63.0 °F 97% 29.95 in 7.0 mi West 5.8 mph - N/A   Scattered Clouds
3:15 AM 64.4 °F 63.5 °F 97% 29.95 in 7.0 mi WNW 5.8 mph - N/A   Scattered Clouds
3:34 AM 65.3 °F 63.7 °F 94% 29.96 in 10.0 mi NW 5.8 mph - N/A   Clear
3:55 AM 64.8 °F 63.0 °F 94% 29.96 in 10.0 mi WNW 6.9 mph - N/A   Clear
4:15 AM 64.0 °F 62.4 °F 94% 29.97 in 10.0 mi NW 4.6 mph - N/A   Clear
4:34 AM 63.0 °F 61.7 °F 96% 29.98 in 10.0 mi NW 4.6 mph - N/A   Clear
4:55 AM 62.2 °F 60.8 °F 95% 29.98 in 10.0 mi NW 4.6 mph - N/A   Clear
5:15 AM 61.0 °F 59.2 °F 94% 29.98 in 10.0 mi WNW 3.5 mph - N/A   Clear
5:34 AM 60.3 °F 58.8 °F 95% 29.98 in 10.0 mi WNW 3.5 mph - N/A   Clear
5:55 AM 59.5 °F 58.3 °F 96% 29.99 in 10.0 mi WNW 4.6 mph - N/A   Clear
6:14 AM 56.8 °F 56.5 °F 99% 30.00 in 7.0 mi West 3.5 mph - N/A   Clear
6:34 AM 57.0 °F 56.1 °F 97% 29.99 in 7.0 mi Calm Calm - N/A   Clear
6:55 AM 57.9 °F 56.8 °F 96% 30.00 in 10.0 mi WNW 3.5 mph - N/A   Clear
7:14 AM 59.2 °F 57.4 °F 94% 30.00 in 10.0 mi NNW 3.5 mph - N/A   Clear
7:35 AM 59.9 °F 57.2 °F 91% 30.02 in 10.0 mi NW 5.8 mph - N/A   Clear
7:54 AM 60.8 °F 58.3 °F 91% 30.01 in 10.0 mi Calm Calm - N/A   Clear
8:14 AM 61.0 °F 57.2 °F 87% 30.02 in 10.0 mi Calm Calm - N/A   Scattered Clouds
8:35 AM 60.4 °F 56.5 °F 87% 30.03 in 10.0 mi NW 3.5 mph - N/A   Mostly Cloudy
8:54 AM 60.8 °F 56.7 °F 86% 30.03 in 10.0 mi NW 3.5 mph - N/A   Mostly Cloudy
9:15 AM 61.5 °F 57.4 °F 86% 30.05 in 10.0 mi NNW 6.9 mph - N/A   Mostly Cloudy
9:35 AM 60.8 °F 56.7 °F 86% 30.04 in 10.0 mi NW 3.5 mph - N/A   Mostly Cloudy
9:54 AM 61.0 °F 56.8 °F 86% 30.04 in 10.0 mi Calm Calm - N/A Rain Light Rain
10:15 AM 60.8 °F 57.4 °F 88% 30.06 in 10.0 mi NW 3.5 mph - N/A   Overcast
10:35 AM 61.0 °F 55.9 °F 83% 30.06 in 10.0 mi WNW 5.8 mph - N/A Rain Light Rain
10:54 AM 62.2 °F 56.1 °F 80% 30.06 in 10.0 mi NW 6.9 mph - N/A   Overcast
11:15 AM 64.6 °F 56.3 °F 74% 30.07 in 10.0 mi NW 8.1 mph - N/A   Mostly Cloudy
11:34 AM 66.9 °F 56.1 °F 68% 30.08 in 10.0 mi NW 9.2 mph - N/A   Scattered Clouds
11:54 AM 70.0 °F 55.4 °F 60% 30.07 in 10.0 mi NNW 6.9 mph - N/A   Clear
12:15 PM 71.2 °F 55.0 °F 56% 30.07 in 10.0 mi WNW 9.2 mph - N/A   Clear
12:34 PM 72.5 °F 54.5 °F 53% 30.08 in 10.0 mi WNW 5.8 mph - N/A   Clear
12:55 PM 73.6 °F 54.5 °F 51% 30.08 in 10.0 mi WNW 8.1 mph - N/A   Clear
1:15 PM 74.1 °F 53.1 °F 48% 30.07 in 10.0 mi NNW 9.2 mph - N/A   Clear
1:34 PM 74.3 °F 53.1 °F 47% 30.07 in 10.0 mi WNW 9.2 mph - N/A   Clear
1:55 PM 75.4 °F 51.8 °F 44% 30.07 in 10.0 mi WNW 6.9 mph - N/A   Clear
2:15 PM 75.6 °F 50.5 °F 41% 30.07 in 10.0 mi NW 4.6 mph 9.2 mph N/A   Clear
2:34 PM 75.9 °F 49.8 °F 40% 30.07 in 10.0 mi NNW 10.4 mph - N/A   Scattered Clouds
2:55 PM 75.6 °F 48.2 °F 38% 30.07 in 10.0 mi NW 10.4 mph - N/A   Clear
3:14 PM 75.4 °F 47.3 °F 37% 30.07 in 10.0 mi NNW 8.1 mph - N/A   Clear
3:34 PM 75.7 °F 46.0 °F 35% 30.07 in 10.0 mi NNW 10.4 mph 16.1 mph N/A   Clear
3:55 PM 76.3 °F 48.2 °F 37% 30.07 in 10.0 mi NNW 10.4 mph 17.3 mph N/A   Clear
4:14 PM 74.8 °F 47.5 °F 38% 30.07 in 10.0 mi North 8.1 mph - N/A   Clear
4:35 PM 74.3 °F 47.8 °F 39% 30.08 in 10.0 mi NNW 12.7 mph 16.1 mph N/A   Clear
4:54 PM 74.1 °F 49.6 °F 42% 30.08 in 10.0 mi NW 6.9 mph - N/A   Clear
5:14 PM 74.3 °F 50.9 °F 44% 30.08 in 10.0 mi NNW 10.4 mph - N/A   Clear
5:35 PM 72.7 °F 48.9 °F 43% 30.08 in 10.0 mi North 9.2 mph 16.1 mph N/A   Clear
5:54 PM 72.0 °F 49.1 °F 44% 30.08 in 10.0 mi NNW 10.4 mph 17.3 mph N/A   Clear
6:15 PM 71.6 °F 48.6 °F 44% 30.09 in 10.0 mi NNW 6.9 mph - N/A   Clear
6:35 PM 70.7 °F 48.2 °F 45% 30.09 in 10.0 mi NNW 9.2 mph - N/A   Clear
6:54 PM 70.0 °F 49.5 °F 48% 30.09 in 10.0 mi NNW 4.6 mph - N/A   Clear
7:15 PM 68.9 °F 50.2 °F 51% 30.09 in 10.0 mi NNW 4.6 mph - N/A   Clear
7:35 PM 67.6 °F 49.8 °F 53% 30.10 in 10.0 mi NNW 5.8 mph - N/A   Clear
7:54 PM 66.4 °F 50.5 °F 57% 30.10 in 10.0 mi NW 3.5 mph - N/A   Clear
8:15 PM 64.4 °F 50.9 °F 62% 30.10 in 10.0 mi NNW 3.5 mph - N/A   Clear
8:34 PM 62.1 °F 50.9 °F 67% 30.11 in 10.0 mi Calm Calm - N/A   Clear
8:54 PM 61.2 °F 50.9 °F 69% 30.11 in 10.0 mi NNW 3.5 mph - N/A   Clear
9:15 PM 59.9 °F 51.3 °F 73% 30.12 in 10.0 mi Calm Calm - N/A   Clear
9:34 PM 58.6 °F 51.8 °F 78% 30.12 in 10.0 mi Calm Calm - N/A   Clear
9:55 PM 57.7 °F 51.6 °F 80% 30.12 in 10.0 mi WNW 3.5 mph - N/A   Clear
10:15 PM 56.5 °F 51.3 °F 83% 30.13 in 10.0 mi WNW 3.5 mph - N/A   Clear
10:34 PM 56.5 °F 51.6 °F 84% 30.13 in 10.0 mi NW 3.5 mph - N/A   Clear
10:55 PM 57.2 °F 52.0 °F 83% 30.14 in 10.0 mi NNW 3.5 mph - N/A   Clear
11:15 PM 56.5 °F 52.2 °F 85% 30.14 in 10.0 mi Calm Calm - N/A   Clear
11:34 PM 57.0 °F 52.7 °F 85% 30.14 in 10.0 mi NW 4.6 mph - N/A   Clear
11:55 PM 56.5 °F 52.7 °F 87% 30.13 in 10.0 mi NW 4.6 mph - N/A   Clear